Location: Sevilla
(37.3933°N, 5.9839°W)
Time: 12:12:23
(UTC+02:00)

S-56A Canister/Altair - Pass Details

Date: 01 July 2024
Orbit: 638 x 2488 km, 38.9° (Epoch: 14 July)

Event Time Altitude Azimuth Distance (km) Brightness Sun altitude
Rises 05:10:22 0° 274° (W) 5,488 11.6 -18.5°
Enters shadow 05:13:50 - 262° (W) 5,059 11.3 -18.0°
Exits shadow 05:34:45 - 183° (S) 6,060 11.7 -15.3°
Sets 05:35:11 0° 182° (S) 6,127 11.7 -15.2°
